Location: Rounton
(54.4000°N, 1.3500°W)
Time: 18:49:42
(UTC+00:00)

Tiros 1 - Visible Passes

Search period start: 30 November 2021 00:00
Search period end: 10 December 2021 00:00
Orbit: 630 x 664 km, 48.4° (Epoch: 30 November)

Date Brightness Start Highest point End Pass type
(mag) Time Alt. Az. Time Alt. Az. Time Alt. Az.
03 Dec 9.4 18:25:12 10° S 18:26:11 12° SSE 18:26:11 12° SSE visible
04 Dec 9.1 18:49:19 10° SSW 18:51:10 18° S 18:51:10 18° S visible
05 Dec 9.2 17:35:12 10° SSE 17:37:12 13° SE 17:38:26 12° SE visible
05 Dec 9.2 19:14:17 10° SW 19:16:05 20° SSW 19:16:05 20° SSW visible
06 Dec 8.7 17:59:07 10° SSW 18:02:34 21° SSE 18:03:18 20° SE visible
06 Dec 9.5 19:39:40 10° WSW 19:40:58 18° SW 19:40:58 18° SW visible
07 Dec 9.4 16:45:15 10° SSE 16:46:56 12° SE 16:48:37 10° ESE visible
07 Dec 8.3 18:24:02 10° SW 18:28:03 29° SSE 18:28:08 29° SSE visible
07 Dec 10.0 20:05:15 10° WSW 20:05:48 13° WSW 20:05:48 13° WSW visible
08 Dec 8.9 17:08:57 10° SSW 17:12:16 20° SSE 17:15:18 11° ESE visible
08 Dec 8.2 18:49:22 10° SW 18:52:57 35° S 18:52:57 35° S visible
09 Dec 8.5 17:33:47 10° SW 17:37:44 28° SSE 17:40:05 19° ESE visible
09 Dec 8.7 19:14:57 10° WSW 19:17:44 30° SW 19:17:44 30° SW visible
